Marion, IN

1:43 AM EDT on August 19, 2017 (GMT -0400)
Marion Municipal

Weather History for KMZZ - January, 2014

Change the Weather History Date:

Monday, January 6, 2014

  Actual Average (KMIE) Record (KMIE)
Temperature  
Mean Temperature -8 °F -  
Max Temperature 78 °F 32 °F 59 °F (1998)
Min Temperature -14 °F 19 °F -13 °F (2014)
Degree Days  
Heating Degree Days 72    
Moisture  
Dew Point -19 °F    
Average Humidity 70    
Maximum Humidity 76    
Minimum Humidity 66    
Precipitation  
Precipitation 0.00 in - - ()
Sea Level Pressure  
Sea Level Pressure 30.20 in    
Wind  
Wind Speed 22 mph (West)    
Max Wind Speed 28 mph    
Max Gust Speed 34 mph    
Visibility 4 miles    
Events Snow    
Averages and records for this station are not official NWS values.
T = Trace of Precipitation, MM = Missing Value Source: NWS Daily Summary

Daily Weather History Graph

Daily Weather History Graph

Search for Another Location

Airport or City:

Trip Planner

Search our weather history database for the weather conditions in past years. The results will help you decide how hot, cold, wet, or windy it might be!

Date:

Astronomy

Jan. 06, 2014 Rise Set
Actual Time 8:06 AM EST 5:31 PM EST
Civil Twilight 7:35 AM EST 6:01 PM EST
Nautical Twilight 7:01 AM EST 6:35 PM EST
Astronomical Twilight 6:28 AM EST 7:08 PM EST
Moon 11:19 AM EST (1/6) No Moon Set
Length of Visible Light 10h 26m
Length of Day
9h 25m
Waxing Crescent, 34% of the Moon is Illuminated
Jan 6
Waxing Crescent
Jan 7
First Quarter
Jan 15
Full
Jan 24
Last Quarter
Jan 30
New

Hourly Weather History & Observations

Time (EST) Temp. Windchill Dew Point Humidity Pressure Visibility Wind Dir Wind Speed Gust Speed Precip Events Conditions
4:15 AM -1.8 °F -27.5 °F -7.8 °F 76% 30.01 in 1.8 mi West 27.6 mph 34.5 mph N/A   Haze
4:35 AM -2.6 °F -28.5 °F -8.9 °F 74% 30.02 in 3.0 mi West 27.6 mph 33.4 mph N/A   Haze
4:55 AM -3.5 °F -29.3 °F -9.4 °F 76% 30.03 in 2.0 mi West 26.5 mph 32.2 mph N/A   Haze
5:15 AM -4.5 °F -29.3 °F -10.8 °F 74% 30.05 in 2.0 mi West 23.0 mph 29.9 mph N/A   Haze
5:35 AM -5.6 °F -31.7 °F -12.1 °F 74% 30.06 in 3.0 mi West 25.3 mph - N/A   Haze
5:55 AM -6.2 °F -32.0 °F -12.6 °F 74% 30.07 in 2.5 mi WNW 24.2 mph 29.9 mph N/A   Haze
6:15 AM -7.1 °F -33.2 °F -13.5 °F 73% 30.08 in 4.0 mi West 24.2 mph 31.1 mph N/A   Haze
6:35 AM -8.1 °F -33.0 °F -14.6 °F 73% 30.10 in 3.0 mi West 20.7 mph - N/A   Haze
6:55 AM -9.6 °F -35.5 °F -16.1 °F 73% 30.11 in 4.0 mi West 21.9 mph - N/A   Haze
7:15 AM -10.7 °F -35.7 °F -17.3 °F 72% 30.11 in 4.0 mi West 19.6 mph - N/A   Haze
7:35 AM -11.6 °F -37.5 °F -18.4 °F 72% 30.13 in 4.0 mi West 20.7 mph - N/A   Haze
7:55 AM -12.3 °F -40.1 °F -19.1 °F 72% 30.14 in 2.5 mi West 24.2 mph 28.8 mph N/A   Haze
8:15 AM -13.0 °F -39.4 °F -19.8 °F 72% 30.14 in 2.5 mi West 20.7 mph - N/A   Haze
8:35 AM -13.5 °F -40.1 °F -20.4 °F 71% 30.15 in 2.0 mi West 20.7 mph - N/A   Haze
8:55 AM -13.9 °F -38.7 °F -21.1 °F 70% 30.16 in 2.0 mi West 17.3 mph 25.3 mph N/A   Haze
9:15 AM -13.9 °F -40.6 °F -21.3 °F 70% 30.17 in 2.5 mi West 20.7 mph - N/A   Haze
9:35 AM -13.9 °F -41.2 °F -21.3 °F 70% 30.18 in 2.5 mi West 21.9 mph - N/A   Haze
9:55 AM -13.5 °F -41.8 °F -21.1 °F 69% 30.19 in 1.8 mi West 24.2 mph - N/A   Haze
10:15 AM -13.2 °F -39.6 °F -21.3 °F 67% 30.20 in 2.0 mi West 20.7 mph - N/A   Haze
10:35 AM -13.0 °F -41.1 °F -21.3 °F 67% 30.20 in 1.8 mi West 24.2 mph 28.8 mph N/A   Haze
10:55 AM -12.8 °F -37.9 °F -21.1 °F 67% 30.20 in 1.8 mi West 18.4 mph 23.0 mph N/A   Haze
11:15 AM -12.5 °F -38.7 °F -20.9 °F 66% 30.20 in 4.0 mi West 20.7 mph - N/A   Haze
11:35 AM -12.3 °F -39.0 °F -20.7 °F 66% 30.19 in 2.5 mi West 21.9 mph 26.5 mph N/A   Haze
11:55 AM -12.3 °F -37.2 °F -20.7 °F 66% 30.19 in 3.0 mi West 18.4 mph - N/A   Haze
12:15 PM -11.9 °F -38.0 °F -20.0 °F 67% 30.19 in 1.8 mi West 20.7 mph 28.8 mph N/A   Haze
12:35 PM -11.4 °F -37.3 °F -19.7 °F 67% 30.18 in 1.8 mi West 20.7 mph 28.8 mph N/A   Haze
12:55 PM -11.4 °F -38.4 °F -19.8 °F 66% 30.18 in 1.2 mi West 23.0 mph - N/A   Haze
1:15 PM -11.6 °F -39.2 °F -19.8 °F 67% 30.18 in 1.2 mi West 24.2 mph - N/A   Haze
1:35 PM -11.6 °F -36.9 °F -19.8 °F 67% 30.18 in 2.0 mi West 19.6 mph 25.3 mph N/A   Haze
1:55 PM -11.6 °F -39.2 °F -19.8 °F 67% 30.19 in 1.5 mi West 24.2 mph 29.9 mph N/A   Haze
2:15 PM -11.6 °F -36.9 °F -19.8 °F 67% 30.19 in 1.5 mi West 19.6 mph - N/A   Haze
2:35 PM -11.6 °F -39.7 °F -19.7 °F 67% 30.20 in 1.5 mi West 25.3 mph 31.1 mph N/A   Haze
2:55 PM -11.6 °F -38.1 °F -19.5 °F 68% 30.21 in 1.0 mi West 21.9 mph - N/A   Haze
3:15 PM -11.6 °F -38.1 °F -19.3 °F 69% 30.21 in 1.5 mi West 21.9 mph 28.8 mph N/A   Haze
3:35 PM -11.4 °F -38.4 °F -19.7 °F 67% 30.22 in 1.2 mi West 23.0 mph 29.9 mph N/A Snow Light Snow
3:55 PM -11.4 °F -39.4 °F -19.8 °F 66% 30.23 in 1.2 mi West 25.3 mph 31.1 mph N/A   Haze
4:15 PM -11.6 °F -38.1 °F -20.0 °F 66% 30.24 in 2.5 mi West 21.9 mph 25.3 mph N/A   Haze
4:35 PM -11.7 °F -38.3 °F -19.7 °F 68% 30.24 in 2.0 mi West 21.9 mph 26.5 mph N/A   Haze
4:55 PM -12.1 °F -37.6 °F -19.7 °F 69% 30.25 in 2.0 mi West 19.6 mph - N/A   Haze
5:15 PM -12.5 °F -38.1 °F -20.0 °F 69% 30.25 in 3.0 mi West 19.6 mph - N/A   Haze
5:35 PM -12.8 °F -37.3 °F -20.4 °F 69% 30.26 in 4.0 mi West 17.3 mph - N/A   Haze
5:55 PM -13.2 °F -37.7 °F -20.7 °F 69% 30.27 in 5.0 mi West 17.3 mph - N/A   Haze
6:15 PM -13.5 °F -36.7 °F -20.9 °F 70% 30.27 in 10.0 mi WSW 15.0 mph - N/A   Unknown
6:35 PM -13.9 °F -37.2 °F -21.1 °F 70% 30.27 in 10.0 mi WSW 15.0 mph - N/A   Unknown
6:55 PM -13.9 °F -36.3 °F -21.3 °F 70% 30.28 in 10.0 mi WSW 13.8 mph - N/A   Unknown
7:15 PM -13.9 °F -34.5 °F -21.5 °F 69% 30.28 in 10.0 mi WSW 11.5 mph - N/A   Unknown
7:35 PM -14.3 °F -35.9 °F -21.3 °F 71% 30.28 in 10.0 mi WSW 12.7 mph - N/A   Unknown
7:55 PM -14.4 °F -36.1 °F -21.3 °F 71% 30.28 in 10.0 mi WSW 12.7 mph - N/A   Unknown
8:15 PM -14.3 °F -37.6 °F -21.3 °F 71% 30.28 in 10.0 mi WSW 15.0 mph - N/A   Unknown
8:35 PM -14.3 °F -38.4 °F -21.1 °F 71% 30.28 in 10.0 mi WSW 16.1 mph - N/A   Unknown
8:55 PM -14.1 °F -38.2 °F -21.1 °F 71% 30.28 in 10.0 mi WSW 16.1 mph - N/A   Unknown
9:15 PM -14.3 °F -37.6 °F -21.1 °F 71% 30.29 in 10.0 mi WSW 15.0 mph - N/A   Unknown
9:35 PM -14.6 °F -35.4 °F -21.3 °F 72% 30.29 in 10.0 mi WSW 11.5 mph - N/A   Unknown
9:55 PM -14.8 °F -36.6 °F -21.3 °F 73% 30.29 in 7.0 mi WSW 12.7 mph - N/A   Unknown
10:15 PM -14.4 °F -37.0 °F -21.1 °F 72% 30.30 in 10.0 mi WSW 13.8 mph - N/A   Unknown
10:35 PM -14.1 °F -36.6 °F -20.6 °F 73% 30.29 in 7.0 mi WSW 13.8 mph - N/A   Unknown
10:55 PM -14.1 °F -36.6 °F -20.6 °F 73% 30.29 in 7.0 mi WSW 13.8 mph - N/A   Unknown
11:15 PM -13.9 °F -37.2 °F -20.4 °F 73% 30.29 in 7.0 mi WSW 15.0 mph - N/A   Unknown
11:35 PM -13.7 °F -37.7 °F -20.2 °F 73% 30.28 in 10.0 mi WSW 16.1 mph - N/A   Unknown
11:55 PM -13.9 °F -35.5 °F -20.6 °F 72% 30.28 in 10.0 mi WSW 12.7 mph - N/A   Unknown